MCMWTC BRIDGEPORT, CA, CA

3:45 PM PDT on March 29, 2017 (GMT -0700)
MCMWTC BRIDGEPORT, CA

Weather History for KBAN - May, 2014

Change the Weather History Date:

Monday, May 5, 2014

  Actual Average (KTVL) Record (KTVL)
Temperature  
Mean Temperature 47 °F -  
Max Temperature 57 °F 57 °F 75 °F (1947)
Min Temperature 33 °F 31 °F 23 °F (1973)
Degree Days  
Heating Degree Days 18    
Moisture  
Dew Point 22 °F    
Average Humidity 40    
Maximum Humidity 72    
Minimum Humidity 27    
Precipitation  
Precipitation 0.00 in - - ()
Sea Level Pressure  
Sea Level Pressure 29.75 in    
Wind  
Wind Speed 11 mph (SW)    
Max Wind Speed 30 mph    
Max Gust Speed 50 mph    
Visibility 10 miles    
Events Rain , Snow    
Averages and records for this station are not official NWS values.
T = Trace of Precipitation, MM = Missing Value Source: NWS Daily Summary

Daily Weather History Graph

Daily Weather History Graph

Search for Another Location

Airport or City:

Trip Planner

Search our weather history database for the weather conditions in past years. The results will help you decide how hot, cold, wet, or windy it might be!

Date:

Astronomy

May. 05, 2014 Rise Set
Actual Time 5:56 AM PDT 7:53 PM PDT
Civil Twilight 5:27 AM PDT 8:22 PM PDT
Nautical Twilight 4:52 AM PDT 8:57 PM PDT
Astronomical Twilight 4:15 AM PDT 9:35 PM PDT
Moon 11:20 AM PDT (5/5) 12:40 AM PDT (5/5)
Length of Visible Light 14h 54m
Length of Day
13h 56m
Waxing Crescent, 37% of the Moon is Illuminated
May 5
Waxing Crescent
May 6
First Quarter
May 14
Full
May 21
Last Quarter
May 28
New

Hourly Weather History & Observations

Time (PDT) Temp. Windchill Dew Point Humidity Pressure Visibility Wind Dir Wind Speed Gust Speed Precip Events Conditions
12:52 AM 41.0 °F - 19.0 °F 41% 29.84 in 10.0 mi Calm Calm - N/A   Clear
1:52 AM 45.0 °F 40.1 °F 24.1 °F 44% 29.81 in 10.0 mi SSE 9.2 mph - N/A   Clear
2:52 AM 45.0 °F 40.6 °F 21.0 °F 39% 29.79 in 10.0 mi SE 8.1 mph - N/A   Clear
3:52 AM 44.1 °F 41.5 °F 19.9 °F 38% 29.78 in 10.0 mi Variable 4.6 mph - N/A   Clear
4:52 AM 43.0 °F - 18.0 °F 37% 29.77 in 10.0 mi Calm Calm - N/A   Clear
5:52 AM 42.1 °F 40.2 °F 15.1 °F 34% 29.76 in 10.0 mi Variable 3.5 mph - N/A   Clear
6:52 AM 45.0 °F 40.1 °F 19.0 °F 36% 29.77 in 10.0 mi SW 9.2 mph 19.6 mph N/A   Clear
7:52 AM 48.0 °F - 21.9 °F 36% 29.76 in 10.0 mi SW 12.7 mph 23.0 mph N/A   Clear
8:52 AM 51.1 °F - 21.0 °F 31% 29.73 in 10.0 mi SSW 19.6 mph 35.7 mph N/A   Clear
9:52 AM 53.1 °F - 21.9 °F 30% 29.73 in 10.0 mi SSW 27.6 mph 40.3 mph N/A   Clear
10:52 AM 55.0 °F - 24.1 °F 30% 29.72 in 10.0 mi SSW 25.3 mph 38.0 mph N/A   Clear
11:52 AM 55.9 °F - 25.0 °F 30% 29.70 in 10.0 mi SSW 25.3 mph 42.6 mph N/A   Clear
12:52 PM 55.9 °F - 24.1 °F 29% 29.77 in 10.0 mi SSW 29.9 mph 41.4 mph N/A   Clear
1:52 PM 57.0 °F - 23.0 °F 27% 29.69 in 10.0 mi SSW 25.3 mph 42.6 mph N/A   Clear
2:52 PM 55.0 °F - 23.0 °F 29% 29.68 in 10.0 mi SSW 28.8 mph 49.5 mph N/A   Partly Cloudy
3:52 PM 53.1 °F - 21.9 °F 30% 29.74 in 10.0 mi SSW 18.4 mph 32.2 mph N/A   Partly Cloudy
4:52 PM 48.9 °F - 23.0 °F 36% 29.76 in 10.0 mi WSW 17.3 mph 32.2 mph N/A   Mostly Cloudy
5:52 PM 46.9 °F - 26.1 °F 44% 29.73 in 10.0 mi SW 13.8 mph 25.3 mph 0.00 in Rain Light Rain
6:52 PM 45.0 °F 37.9 °F 21.9 °F 40% 29.72 in 10.0 mi SSW 16.1 mph 25.3 mph 0.00 in   Mostly Cloudy
7:52 PM 42.1 °F 37.1 °F 27.0 °F 55% 29.75 in 10.0 mi SSW 8.1 mph - N/A   Overcast
8:52 PM 37.9 °F 33.5 °F 27.0 °F 65% 29.75 in 10.0 mi SW 5.8 mph - 0.00 in Snow Light Snow
9:52 PM 37.9 °F 31.5 °F 21.0 °F 51% 29.73 in 10.0 mi WSW 9.2 mph - 0.00 in   Scattered Clouds
10:52 PM 37.9 °F 31.5 °F 19.0 °F 47% 29.71 in 10.0 mi West 9.2 mph - N/A   Clear
11:52 PM 33.1 °F 26.1 °F 25.0 °F 72% 29.73 in 10.0 mi North 8.1 mph - N/A   Partly Cloudy